| time (UTC) | temp C | wind direction | speed KPH | gust KPH | rain 1hr cm | rain 24hr cm | rain mn cm | humidity % | barometer mb |
| 20260905171517 | 35 | 62 | 0.0 | 8.0 | 0.00 | 0.00 | 0.00 | 45 | 1014.7 |
| 20260905171017 | 35 | 17 | 0.0 | 14.5 | 0.00 | 0.00 | 0.00 | 46 | 1014.7 |
| 20260905170517 | 35 | 65 | 0.0 | 12.9 | 0.00 | 0.00 | 0.00 | 46 | 1014.9 |
| 20260905170017 | 35 | 76 | 4.8 | 12.9 | 0.00 | 0.00 | 0.00 | 45 | 1014.9 |
| 20260905165517 | 35 | 13 | 0.0 | 11.3 | 0.00 | 0.00 | 0.00 | 46 | 1014.9 |
| 20260905165017 | 35 | 356 | 3.2 | 6.4 | 0.00 | 0.00 | 0.00 | 46 | 1014.9 |
| 20260905164517 | 35 | 32 | 0.0 | 4.8 | 0.00 | 0.00 | 0.00 | 49 | 1015.0 |
| 20260905164017 | 34 | 13 | 3.2 | 9.7 | 0.00 | 0.00 | 0.00 | 47 | 1015.1 |
| 20260905163518 | 34 | 92 | 4.8 | 12.9 | 0.00 | 0.00 | 0.00 | 48 | 1015.2 |
| 20260905163017 | 34 | 79 | 4.8 | 14.5 | 0.00 | 0.00 | 0.00 | 48 | 1015.2 |
| 20260905162517 | 34 | 93 | 6.4 | 9.7 | 0.00 | 0.00 | 0.00 | 48 | 1015.2 |
| 20260905162017 | 33 | 99 | 8.0 | 11.3 | 0.00 | 0.00 | 0.00 | 49 | 1015.2 |
| 20260905161517 | 33 | 102 | 0.0 | 12.9 | 0.00 | 0.00 | 0.00 | 50 | 1015.3 |
| 20260905161017 | 33 | 343 | 0.0 | 9.7 | 0.00 | 0.00 | 0.00 | 52 | 1015.3 |
| 20260905160517 | 33 | 332 | 3.2 | 9.7 | 0.00 | 0.00 | 0.00 | 52 | 1015.3 |
| 20260905160018 | 33 | 360 | 0.0 | 11.3 | 0.00 | 0.00 | 0.00 | 53 | 1015.3 |
| 20260905155517 | 33 | 14 | 0.0 | 4.8 | 0.00 | 0.00 | 0.00 | 54 | 1015.2 |
| 20260905155017 | 33 | 360 | 0.0 | 9.7 | 0.00 | 0.00 | 0.00 | 52 | 1015.3 |
| 20260905154517 | 33 | 82 | 4.8 | 12.9 | 0.00 | 0.00 | 0.00 | 53 | 1015.3 |
| 20260905154017 | 33 | 107 | 0.0 | 11.3 | 0.00 | 0.00 | 0.00 | 54 | 1015.2 |
| 20260905153517 | 33 | 61 | 1.6 | 8.0 | 0.00 | 0.00 | 0.00 | 53 | 1015.2 |
| 20260905153018 | 32 | 10 | 1.6 | 11.3 | 0.00 | 0.00 | 0.00 | 54 | 1015.2 |
| 20260905152517 | 32 | 99 | 3.2 | 8.0 | 0.00 | 0.00 | 0.00 | 55 | 1015.3 |
| 20260905152017 | 32 | 313 | 1.6 | 12.9 | 0.00 | 0.00 | 0.00 | 54 | 1015.3 |
| 20260905151522 | 32 | 315 | 0.0 | 1.6 | 0.00 | 0.00 | 0.00 | 57 | 1015.3 |
| 20260905151017 | 32 | 42 | 1.6 | 8.0 | 0.00 | 0.00 | 0.00 | 57 | 1015.2 |
| 20260905150517 | 32 | 64 | 1.6 | 8.0 | 0.00 | 0.00 | 0.00 | 57 | 1015.3 |
| 20260905150017 | 32 | 90 | 4.8 | 11.3 | 0.00 | 0.00 | 0.00 | 58 | 1015.3 |
| 20260905145517 | 31 | 85 | 9.7 | 9.7 | 0.00 | 0.00 | 0.00 | 59 | 1015.3 |
| 20260905145017 | 31 | 89 | 1.6 | 14.5 | 0.00 | 0.00 | 0.00 | 60 | 1015.3 |
| 20260905144517 | 31 | 27 | 11.3 | 9.7 | 0.00 | 0.00 | 0.00 | 62 | 1015.3 |
| 20260905144018 | 31 | 80 | 3.2 | 9.7 | 0.00 | 0.00 | 0.00 | 63 | 1015.4 |
| 20260905143517 | 30 | 117 | 0.0 | 9.7 | 0.00 | 0.00 | 0.00 | 63 | 1015.4 |
| 20260905143017 | 30 | 20 | 3.2 | 9.7 | 0.00 | 0.00 | 0.00 | 65 | 1015.5 |
| 20260905142518 | 30 | 102 | 0.0 | 8.0 | 0.00 | 0.00 | 0.00 | 67 | 1015.5 |
| 20260905142017 | 30 | 92 | 4.8 | 12.9 | 0.00 | 0.00 | 0.00 | 68 | 1015.5 |
| 20260905141517 | 29 | 333 | 4.8 | 4.8 | 0.00 | 0.00 | 0.00 | 71 | 1015.5 |
| 20260905141017 | 28 | 261 | 1.6 | 3.2 | 0.00 | 0.00 | 0.00 | 73 | 1015.4 |
| 20260905140517 | 28 | 219 | 0.0 | 3.2 | 0.00 | 0.00 | 0.00 | 75 | 1015.4 |
| 20260905140017 | 28 | 217 | 0.0 | 3.2 | 0.00 | 0.00 | 0.00 | 77 | 1015.5 |
| 20260905135517 | 28 | 126 | 1.6 | 3.2 | 0.00 | 0.00 | 0.00 | 78 | 1015.5 |
| 20260905135017 | 27 | 112 | 1.6 | 6.4 | 0.00 | 0.00 | 0.00 | 80 | 1015.6 |
| 20260905134518 | 27 | 123 | 1.6 | 4.8 | 0.00 | 0.00 | 0.00 | 82 | 1015.6 |
| 20260905134017 | 27 | 116 | 0.0 | 3.2 | 0.00 | 0.00 | 0.00 | 83 | 1015.6 |
| 20260905133517 | 26 | 0 | 0.0 | 0.0 | 0.00 | 0.00 | 0.00 | 85 | 1015.6 |
| 20260905133017 | 26 | 0 | 0.0 | 0.0 | 0.00 | 0.00 | 0.00 | 86 | 1015.5 |
| 20260905132517 | 26 | 0 | 0.0 | 0.0 | 0.00 | 0.00 | 0.00 | 87 | 1015.5 |
| 20260905132017 | 26 | 0 | 0.0 | 0.0 | 0.00 | 0.00 | 0.00 | 88 | 1015.5 |
| 20260905131518 | 26 | 0 | 0.0 | 0.0 | 0.00 | 0.00 | 0.00 | 88 | 1015.6 |
| 20260905131017 | 25 | 0 | 0.0 | 0.0 | 0.00 | 0.00 | 0.00 | 89 | 1015.7 |
| 20260905130517 | 25 | 0 | 0.0 | 0.0 | 0.00 | 0.00 | 0.00 | 90 | 1015.8 |
| 20260905130017 | 25 | 0 | 0.0 | 0.0 | 0.00 | 0.00 | 0.00 | 90 | 1015.8 |
| 20260905125517 | 25 | 0 | 0.0 | 0.0 | 0.00 | 0.00 | 0.00 | 91 | 1015.7 |
| 20260905125017 | 25 | 0 | 0.0 | 0.0 | 0.00 | 0.00 | 0.00 | 91 | 1015.8 |
| 20260905124517 | 25 | 0 | 0.0 | 0.0 | 0.00 | 0.00 | 0.00 | 91 | 1015.8 |
| 20260905124017 | 25 | 0 | 0.0 | 0.0 | 0.00 | 0.00 | 0.00 | 91 | 1015.7 |
| 20260905123517 | 24 | 0 | 0.0 | 0.0 | 0.00 | 0.00 | 0.00 | 91 | 1015.8 |
| 20260905123017 | 24 | 0 | 0.0 | 0.0 | 0.00 | 0.00 | 0.00 | 91 | 1015.8 |
| 20260905122517 | 24 | 0 | 0.0 | 0.0 | 0.00 | 0.00 | 0.00 | 91 | 1015.7 |
| 20260905122017 | 24 | 0 | 0.0 | 0.0 | 0.00 | 0.00 | 0.00 | 92 | 1015.6 |
| 20260905121517 | 24 | 0 | 0.0 | 0.0 | 0.00 | 0.00 | 0.00 | 92 | 1015.6 |
| 20260905121017 | 24 | 0 | 0.0 | 0.0 | 0.00 | 0.00 | 0.00 | 92 | 1015.5 |
| 20260905120517 | 24 | 0 | 0.0 | 0.0 | 0.00 | 0.00 | 0.00 | 91 | 1015.5 |
| 20260905120017 | 24 | 0 | 0.0 | 0.0 | 0.00 | 0.00 | 0.00 | 92 | 1015.6 |
| 20260905115517 | 24 | 0 | 0.0 | 0.0 | 0.00 | 0.00 | 0.00 | 92 | 1015.5 |
| 20260905115017 | 24 | 0 | 0.0 | 0.0 | 0.00 | 0.00 | 0.00 | 91 | 1015.5 |
| 20260905114518 | 23 | 0 | 0.0 | 0.0 | 0.00 | 0.00 | 0.00 | 91 | 1015.4 |
| 20260905114017 | 23 | 0 | 0.0 | 0.0 | 0.00 | 0.00 | 0.00 | 91 | 1015.4 |
| 20260905113517 | 23 | 0 | 0.0 | 0.0 | 0.00 | 0.00 | 0.00 | 91 | 1015.4 |
| 20260905113018 | 24 | 0 | 0.0 | 0.0 | 0.00 | 0.00 | 0.00 | 91 | 1015.3 |
| 20260905112517 | 23 | 0 | 0.0 | 0.0 | 0.00 | 0.00 | 0.00 | 91 | 1015.3 |
| 20260905112017 | 24 | 0 | 0.0 | 0.0 | 0.00 | 0.00 | 0.00 | 91 | 1015.3 |
| 20260905111517 | 24 | 0 | 0.0 | 0.0 | 0.00 | 0.00 | 0.00 | 91 | 1015.3 |
| 20260905111017 | 24 | 0 | 0.0 | 0.0 | 0.00 | 0.00 | 0.00 | 91 | 1015.2 |
| 20260905110517 | 24 | 0 | 0.0 | 0.0 | 0.00 | 0.00 | 0.00 | 91 | 1015.2 |
| 20260905110017 | 24 | 0 | 0.0 | 0.0 | 0.00 | 0.00 | 0.00 | 91 | 1015.2 |
| 20260905105517 | 24 | 0 | 0.0 | 0.0 | 0.00 | 0.00 | 0.00 | 90 | 1015.3 |
| 20260905105018 | 24 | 0 | 0.0 | 0.0 | 0.00 | 0.00 | 0.00 | 90 | 1015.2 |
| 20260905104517 | 24 | 0 | 0.0 | 0.0 | 0.00 | 0.00 | 0.00 | 90 | 1015.2 |
| 20260905104017 | 24 | 0 | 0.0 | 0.0 | 0.00 | 0.00 | 0.00 | 90 | 1015.2 |
| 20260905103517 | 24 | 0 | 0.0 | 0.0 | 0.00 | 0.00 | 0.00 | 90 | 1015.1 |
| 20260905103017 | 24 | 0 | 0.0 | 0.0 | 0.00 | 0.00 | 0.00 | 90 | 1015.1 |
| 20260905102517 | 24 | 0 | 0.0 | 0.0 | 0.00 | 0.00 | 0.00 | 89 | 1015.1 |
| 20260905102017 | 24 | 0 | 0.0 | 0.0 | 0.00 | 0.00 | 0.00 | 89 | 1015.1 |
| 20260905101517 | 24 | 0 | 0.0 | 0.0 | 0.00 | 0.00 | 0.00 | 89 | 1015.1 |
| 20260905101017 | 24 | 0 | 0.0 | 0.0 | 0.00 | 0.00 | 0.00 | 89 | 1015.2 |
| 20260905100517 | 24 | 0 | 0.0 | 0.0 | 0.00 | 0.00 | 0.00 | 89 | 1015.2 |
| 20260905100017 | 24 | 0 | 0.0 | 0.0 | 0.00 | 0.00 | 0.00 | 89 | 1015.1 |
| 20260905095517 | 24 | 0 | 0.0 | 0.0 | 0.00 | 0.00 | 0.00 | 88 | 1015.1 |
| 20260905095017 | 24 | 0 | 0.0 | 0.0 | 0.00 | 0.00 | 0.00 | 88 | 1015.0 |
| 20260905094517 | 25 | 0 | 0.0 | 0.0 | 0.00 | 0.00 | 0.00 | 89 | 1014.9 |
| 20260905094017 | 24 | 0 | 0.0 | 0.0 | 0.00 | 0.00 | 0.00 | 88 | 1014.9 |
| 20260905093518 | 25 | 0 | 0.0 | 0.0 | 0.00 | 0.00 | 0.00 | 88 | 1014.9 |
| 20260905093017 | 25 | 0 | 0.0 | 0.0 | 0.00 | 0.00 | 0.00 | 88 | 1015.0 |
| 20260905092517 | 25 | 0 | 0.0 | 0.0 | 0.00 | 0.00 | 0.00 | 88 | 1015.0 |
| 20260905092017 | 25 | 0 | 0.0 | 0.0 | 0.00 | 0.00 | 0.00 | 88 | 1015.0 |
| 20260905091517 | 25 | 0 | 0.0 | 0.0 | 0.00 | 0.00 | 0.00 | 88 | 1015.0 |
| 20260905091018 | 25 | 0 | 0.0 | 0.0 | 0.00 | 0.00 | 0.00 | 88 | 1014.9 |
| 20260905090517 | 25 | 0 | 0.0 | 0.0 | 0.00 | 0.00 | 0.00 | 87 | 1015.0 |
| 20260905090017 | 25 | 0 | 0.0 | 0.0 | 0.00 | 0.00 | 0.00 | 87 | 1015.0 |
| 20260905085517 | 25 | 0 | 0.0 | 0.0 | 0.00 | 0.00 | 0.00 | 87 | 1015.0 |
| 20260905085017 | 25 | 0 | 0.0 | 0.0 | 0.00 | 0.00 | 0.00 | 87 | 1014.9 |
| 20260905084517 | 25 | 0 | 0.0 | 0.0 | 0.00 | 0.00 | 0.00 | 87 | 1014.8 |
| 20260905084017 | 25 | 0 | 0.0 | 0.0 | 0.00 | 0.00 | 0.00 | 87 | 1014.8 |
| 20260905083517 | 25 | 0 | 0.0 | 0.0 | 0.00 | 0.00 | 0.00 | 87 | 1014.8 |
| 20260905083017 | 25 | 0 | 0.0 | 0.0 | 0.00 | 0.00 | 0.00 | 87 | 1014.8 |
| 20260905082517 | 25 | 0 | 0.0 | 0.0 | 0.00 | 0.00 | 0.00 | 87 | 1014.8 |
| 20260905082017 | 25 | 0 | 0.0 | 0.0 | 0.00 | 0.00 | 0.00 | 87 | 1014.8 |
| 20260905081517 | 25 | 0 | 0.0 | 0.0 | 0.00 | 0.00 | 0.00 | 87 | 1014.7 |
| 20260905081018 | 25 | 0 | 0.0 | 0.0 | 0.00 | 0.00 | 0.00 | 87 | 1014.7 |
| 20260905080517 | 25 | 0 | 0.0 | 0.0 | 0.00 | 0.00 | 0.00 | 87 | 1014.7 |
| 20260905080017 | 25 | 0 | 0.0 | 0.0 | 0.00 | 0.00 | 0.00 | 86 | 1014.6 |
| 20260905075517 | 25 | 0 | 0.0 | 0.0 | 0.00 | 0.00 | 0.00 | 86 | 1014.6 |
| 20260905075017 | 25 | 0 | 0.0 | 0.0 | 0.00 | 0.00 | 0.00 | 86 | 1014.6 |
| 20260905074517 | 25 | 0 | 0.0 | 0.0 | 0.00 | 0.00 | 0.00 | 86 | 1014.6 |
| 20260905074017 | 25 | 0 | 0.0 | 0.0 | 0.00 | 0.00 | 0.00 | 86 | 1014.6 |
| 20260905073517 | 25 | 0 | 0.0 | 0.0 | 0.00 | 0.00 | 0.00 | 86 | 1014.6 |
| 20260905073017 | 25 | 0 | 0.0 | 0.0 | 0.00 | 0.00 | 0.00 | 86 | 1014.5 |
| 20260905072517 | 25 | 0 | 0.0 | 0.0 | 0.00 | 0.00 | 0.00 | 86 | 1014.5 |
| 20260905072018 | 25 | 0 | 0.0 | 0.0 | 0.00 | 0.00 | 0.00 | 86 | 1014.5 |
| 20260905071517 | 25 | 0 | 0.0 | 0.0 | 0.00 | 0.00 | 0.00 | 85 | 1014.5 |
| 20260905071017 | 25 | 0 | 0.0 | 0.0 | 0.00 | 0.00 | 0.00 | 85 | 1014.5 |
| 20260905070517 | 25 | 0 | 0.0 | 0.0 | 0.00 | 0.00 | 0.00 | 85 | 1014.4 |
| 20260905070018 | 25 | 0 | 0.0 | 0.0 | 0.00 | 0.00 | 0.00 | 85 | 1014.4 |
| 20260905065517 | 25 | 0 | 0.0 | 0.0 | 0.00 | 0.00 | 0.00 | 84 | 1014.5 |
| 20260905065017 | 25 | 0 | 0.0 | 0.0 | 0.00 | 0.00 | 0.00 | 84 | 1014.4 |
| 20260905064517 | 26 | 0 | 0.0 | 0.0 | 0.00 | 0.00 | 0.00 | 84 | 1014.5 |
| 20260905064017 | 25 | 0 | 0.0 | 0.0 | 0.00 | 0.00 | 0.00 | 84 | 1014.6 |
| 20260905063517 | 26 | 0 | 0.0 | 0.0 | 0.00 | 0.00 | 0.00 | 83 | 1014.7 |
| 20260905063017 | 26 | 0 | 0.0 | 0.0 | 0.00 | 0.00 | 0.00 | 83 | 1014.7 |
| 20260905062517 | 26 | 0 | 0.0 | 0.0 | 0.00 | 0.00 | 0.00 | 83 | 1014.7 |
| 20260905062017 | 26 | 0 | 0.0 | 0.0 | 0.00 | 0.00 | 0.00 | 83 | 1014.7 |
| 20260905061517 | 26 | 0 | 0.0 | 0.0 | 0.00 | 0.00 | 0.00 | 82 | 1014.7 |
| 20260905061017 | 26 | 0 | 0.0 | 0.0 | 0.00 | 0.00 | 0.00 | 82 | 1014.7 |
| 20260905060517 | 26 | 0 | 0.0 | 0.0 | 0.00 | 0.00 | 0.00 | 82 | 1014.8 |
| 20260905060017 | 26 | 0 | 0.0 | 0.0 | 0.00 | 0.00 | 0.00 | 82 | 1014.8 |
| 20260905055517 | 26 | 0 | 0.0 | 0.0 | 0.00 | 0.00 | 0.00 | 81 | 1014.8 |
| 20260905055017 | 26 | 0 | 0.0 | 0.0 | 0.00 | 0.00 | 0.00 | 81 | 1014.8 |
| 20260905054517 | 26 | 0 | 0.0 | 0.0 | 0.00 | 0.00 | 0.00 | 81 | 1014.8 |
| 20260905054017 | 26 | 0 | 0.0 | 0.0 | 0.00 | 0.00 | 0.00 | 81 | 1014.8 |
| 20260905053517 | 26 | 0 | 0.0 | 0.0 | 0.00 | 0.00 | 0.00 | 81 | 1014.7 |
| 20260905053017 | 26 | 0 | 0.0 | 0.0 | 0.00 | 0.00 | 0.00 | 81 | 1014.7 |
| 20260905052517 | 26 | 0 | 0.0 | 0.0 | 0.00 | 0.00 | 0.00 | 80 | 1014.7 |
| 20260905052017 | 26 | 0 | 0.0 | 0.0 | 0.00 | 0.00 | 0.00 | 80 | 1014.8 |
| 20260905051517 | 26 | 0 | 0.0 | 0.0 | 0.00 | 0.00 | 0.00 | 80 | 1014.8 |
| 20260905051017 | 26 | 0 | 0.0 | 0.0 | 0.00 | 0.00 | 0.00 | 80 | 1014.9 |
| 20260905050517 | 26 | 0 | 0.0 | 0.0 | 0.00 | 0.00 | 0.00 | 80 | 1014.9 |
| 20260905050017 | 26 | 0 | 0.0 | 0.0 | 0.00 | 0.00 | 0.00 | 80 | 1015.0 |
| 20260905045517 | 26 | 0 | 0.0 | 0.0 | 0.00 | 0.00 | 0.00 | 79 | 1014.9 |
| 20260905045018 | 27 | 0 | 0.0 | 0.0 | 0.00 | 0.00 | 0.00 | 79 | 1014.9 |
| 20260905044517 | 26 | 0 | 0.0 | 0.0 | 0.00 | 0.00 | 0.00 | 78 | 1014.9 |
| 20260905044017 | 26 | 0 | 0.0 | 0.0 | 0.00 | 0.00 | 0.00 | 78 | 1014.9 |
| 20260905043517 | 27 | 0 | 0.0 | 0.0 | 0.00 | 0.00 | 0.00 | 78 | 1014.9 |
| 20260905043017 | 27 | 0 | 0.0 | 0.0 | 0.00 | 0.00 | 0.00 | 77 | 1014.9 |
| 20260905042517 | 27 | 0 | 0.0 | 0.0 | 0.00 | 0.00 | 0.00 | 76 | 1014.9 |
| 20260905042017 | 27 | 0 | 0.0 | 0.0 | 0.00 | 0.00 | 0.00 | 76 | 1015.0 |
| 20260905041517 | 27 | 0 | 0.0 | 0.0 | 0.00 | 0.00 | 0.00 | 76 | 1015.0 |
| 20260905041017 | 27 | 0 | 0.0 | 0.0 | 0.00 | 0.00 | 0.00 | 76 | 1015.0 |
| 20260905040517 | 27 | 0 | 0.0 | 0.0 | 0.00 | 0.00 | 0.00 | 75 | 1015.0 |
| 20260905040017 | 27 | 0 | 0.0 | 0.0 | 0.00 | 0.00 | 0.00 | 75 | 1015.1 |
| 20260905035517 | 27 | 0 | 0.0 | 0.0 | 0.00 | 0.00 | 0.00 | 75 | 1015.1 |
| 20260905035017 | 27 | 0 | 0.0 | 0.0 | 0.00 | 0.00 | 0.00 | 74 | 1015.0 |
| 20260905034517 | 27 | 0 | 0.0 | 0.0 | 0.00 | 0.00 | 0.00 | 74 | 1015.1 |
| 20260905034017 | 27 | 0 | 0.0 | 0.0 | 0.00 | 0.00 | 0.00 | 73 | 1015.1 |
| 20260905033517 | 28 | 0 | 0.0 | 0.0 | 0.00 | 0.00 | 0.00 | 73 | 1015.2 |
| 20260905033017 | 28 | 0 | 0.0 | 0.0 | 0.00 | 0.00 | 0.00 | 73 | 1015.2 |
| 20260905032518 | 28 | 0 | 0.0 | 0.0 | 0.00 | 0.00 | 0.00 | 72 | 1015.2 |
| 20260905032017 | 28 | 0 | 0.0 | 0.0 | 0.00 | 0.00 | 0.00 | 72 | 1015.2 |
| 20260905031517 | 28 | 0 | 0.0 | 0.0 | 0.00 | 0.00 | 0.00 | 72 | 1015.2 |
| 20260905031017 | 28 | 0 | 0.0 | 0.0 | 0.00 | 0.00 | 0.00 | 71 | 1015.3 |
| 20260905030517 | 28 | 0 | 0.0 | 0.0 | 0.00 | 0.00 | 0.00 | 71 | 1015.3 |
| 20260905030016 | 28 | 0 | 0.0 | 0.0 | 0.00 | 0.00 | 0.00 | 71 | 1015.3 |
| 20260905025516 | 28 | 0 | 0.0 | 0.0 | 0.00 | 0.00 | 0.00 | 71 | 1015.5 |
| 20260905025017 | 28 | 0 | 0.0 | 0.0 | 0.00 | 0.00 | 0.00 | 70 | 1015.6 |
| 20260905024517 | 28 | 0 | 0.0 | 0.0 | 0.00 | 0.00 | 0.00 | 70 | 1015.6 |
| 20260905024017 | 28 | 0 | 0.0 | 0.0 | 0.00 | 0.00 | 0.00 | 70 | 1015.7 |
| 20260905023517 | 28 | 0 | 0.0 | 0.0 | 0.00 | 0.00 | 0.00 | 69 | 1015.7 |
| 20260905023017 | 28 | 0 | 0.0 | 0.0 | 0.00 | 0.00 | 0.00 | 69 | 1015.6 |
| 20260905022518 | 28 | 0 | 0.0 | 0.0 | 0.00 | 0.00 | 0.00 | 69 | 1015.6 |
| 20260905022017 | 29 | 0 | 0.0 | 0.0 | 0.00 | 0.00 | 0.00 | 69 | 1015.6 |
| 20260905021517 | 29 | 0 | 0.0 | 0.0 | 0.00 | 0.00 | 0.00 | 68 | 1015.6 |
| 20260905021017 | 29 | 0 | 0.0 | 0.0 | 0.00 | 0.00 | 0.00 | 68 | 1015.5 |
| 20260905020517 | 29 | 0 | 0.0 | 0.0 | 0.00 | 0.00 | 0.00 | 68 | 1015.5 |
| 20260905020017 | 29 | 0 | 0.0 | 0.0 | 0.00 | 0.00 | 0.00 | 67 | 1015.6 |
| 20260905015517 | 29 | 0 | 0.0 | 0.0 | 0.00 | 0.00 | 0.00 | 67 | 1015.5 |
| 20260905015017 | 29 | 0 | 0.0 | 0.0 | 0.00 | 0.00 | 0.00 | 67 | 1015.6 |
| 20260905014517 | 29 | 0 | 0.0 | 0.0 | 0.00 | 0.00 | 0.00 | 67 | 1015.3 |
| 20260905014017 | 29 | 0 | 0.0 | 0.0 | 0.00 | 0.00 | 0.00 | 66 | 1015.3 |
| 20260905013518 | 29 | 0 | 0.0 | 0.0 | 0.00 | 0.00 | 0.00 | 66 | 1015.3 |
| 20260905013017 | 29 | 0 | 0.0 | 0.0 | 0.00 | 0.00 | 0.00 | 66 | 1015.3 |
| 20260905012517 | 30 | 0 | 0.0 | 0.0 | 0.00 | 0.00 | 0.00 | 65 | 1015.2 |
| 20260905012019 | 30 | 0 | 0.0 | 0.0 | 0.00 | 0.00 | 0.00 | 65 | 1015.1 |
| 20260905011517 | 30 | 0 | 0.0 | 0.0 | 0.00 | 0.00 | 0.00 | 65 | 1015.1 |
| 20260905011017 | 30 | 0 | 0.0 | 0.0 | 0.00 | 0.00 | 0.00 | 64 | 1015.1 |
| 20260905010523 | 30 | 0 | 0.0 | 0.0 | 0.00 | 0.00 | 0.00 | 63 | 1015.0 |
| 20260905010017 | 30 | 0 | 0.0 | 0.0 | 0.00 | 0.00 | 0.00 | 63 | 1015.0 |
| 20260905005517 | 30 | 0 | 0.0 | 0.0 | 0.00 | 0.00 | 0.00 | 62 | 1014.9 |
| 20260905005017 | 30 | 0 | 0.0 | 0.0 | 0.00 | 0.00 | 0.00 | 61 | 1015.0 |
| 20260905004517 | 30 | 0 | 0.0 | 0.0 | 0.00 | 0.00 | 0.00 | 61 | 1015.0 |
| 20260905004017 | 31 | 0 | 0.0 | 0.0 | 0.00 | 0.00 | 0.00 | 60 | 1015.0 |
| 20260905003517 | 31 | 0 | 0.0 | 0.0 | 0.00 | 0.00 | 0.00 | 59 | 1015.0 |
| 20260905003017 | 31 | 0 | 0.0 | 0.0 | 0.00 | 0.00 | 0.00 | 59 | 1014.9 |
| 20260905002517 | 31 | 0 | 0.0 | 0.0 | 0.00 | 0.00 | 0.00 | 58 | 1014.9 |
| 20260905002017 | 31 | 0 | 0.0 | 0.0 | 0.00 | 0.00 | 0.00 | 57 | 1014.9 |
| 20260905001517 | 31 | 0 | 0.0 | 0.0 | 0.00 | 0.00 | 0.00 | 56 | 1014.9 |
| 20260905001017 | 32 | 0 | 0.0 | 0.0 | 0.00 | 0.00 | 0.00 | 55 | 1015.0 |
| 20260905000517 | 32 | 0 | 0.0 | 0.0 | 0.00 | 0.00 | 0.00 | 54 | 1015.0 |
| 20260905000017 | 32 | 0 | 0.0 | 0.0 | 0.00 | 0.00 | 0.00 | 53 | 1015.0 |
| 20260904235517 | 32 | 0 | 0.0 | 0.0 | 0.00 | 0.00 | 0.00 | 52 | 1015.0 |
| 20260904235017 | 33 | 0 | 0.0 | 0.0 | 0.00 | 0.00 | 0.00 | 51 | 1015.0 |
| 20260904234517 | 33 | 0 | 0.0 | 0.0 | 0.00 | 0.00 | 0.00 | 50 | 1015.0 |
| 20260904234017 | 33 | 0 | 0.0 | 0.0 | 0.00 | 0.00 | 0.00 | 48 | 1015.0 |
| 20260904233517 | 34 | 0 | 0.0 | 0.0 | 0.00 | 0.00 | 0.00 | 47 | 1015.0 |
| 20260904233017 | 34 | 128 | 0.0 | 6.4 | 0.00 | 0.00 | 0.00 | 47 | 1015.0 |
| 20260904232518 | 34 | 86 | 0.0 | 9.7 | 0.00 | 0.00 | 0.00 | 46 | 1014.9 |
| 20260904232017 | 34 | 62 | 3.2 | 11.3 | 0.00 | 0.00 | 0.00 | 45 | 1014.8 |
| 20260904231517 | 34 | 97 | 0.0 | 9.7 | 0.00 | 0.00 | 0.00 | 45 | 1014.8 |
| 20260904231017 | 34 | 85 | 8.0 | 11.3 | 0.00 | 0.00 | 0.00 | 45 | 1014.7 |
| 20260904230517 | 34 | 83 | 0.0 | 9.7 | 0.00 | 0.00 | 0.00 | 45 | 1014.6 |
| 20260904230017 | 35 | 0 | 0.0 | 0.0 | 0.00 | 0.00 | 0.00 | 46 | 1014.6 |
| 20260904225517 | 34 | 80 | 0.0 | 9.7 | 0.00 | 0.00 | 0.00 | 45 | 1014.5 |
| 20260904225017 | 34 | 68 | 0.0 | 9.7 | 0.00 | 0.00 | 0.00 | 44 | 1014.5 |
| 20260904224517 | 35 | 88 | 4.8 | 6.4 | 0.00 | 0.00 | 0.00 | 44 | 1014.4 |
| 20260904224017 | 35 | 96 | 0.0 | 14.5 | 0.00 | 0.00 | 0.00 | 44 | 1014.4 |
| 20260904223517 | 35 | 59 | 0.0 | 9.7 | 0.00 | 0.00 | 0.00 | 44 | 1014.3 |
| 20260904223017 | 35 | 18 | 1.6 | 4.8 | 0.00 | 0.00 | 0.00 | 44 | 1014.3 |
| 20260904222518 | 35 | 28 | 0.0 | 6.4 | 0.00 | 0.00 | 0.00 | 43 | 1014.3 |
| 20260904222017 | 35 | 71 | 1.6 | 12.9 | 0.00 | 0.00 | 0.00 | 43 | 1014.3 |
| 20260904221517 | 35 | 89 | 9.7 | 12.9 | 0.00 | 0.00 | 0.00 | 43 | 1014.3 |
| 20260904221017 | 35 | 71 | 0.0 | 14.5 | 0.00 | 0.00 | 0.00 | 43 | 1014.3 |
| 20260904220517 | 35 | 114 | 0.0 | 9.7 | 0.00 | 0.00 | 0.00 | 42 | 1014.3 |
| 20260904220017 | 35 | 80 | 4.8 | 8.0 | 0.00 | 0.00 | 0.00 | 41 | 1014.3 |
| 20260904215517 | 35 | 76 | 4.8 | 6.4 | 0.00 | 0.00 | 0.00 | 41 | 1014.3 |
| 20260904215017 | 35 | 97 | 3.2 | 14.5 | 0.00 | 0.00 | 0.00 | 41 | 1014.2 |
| 20260904214517 | 35 | 61 | 0.0 | 9.7 | 0.00 | 0.00 | 0.00 | 41 | 1014.3 |
| 20260904214017 | 36 | 59 | 0.0 | 11.3 | 0.00 | 0.00 | 0.00 | 42 | 1014.3 |
| 20260904213517 | 36 | 99 | 0.0 | 20.9 | 0.00 | 0.00 | 0.00 | 40 | 1014.3 |
| 20260904213017 | 36 | 100 | 1.6 | 14.5 | 0.00 | 0.00 | 0.00 | 39 | 1014.3 |
| 20260904212517 | 36 | 85 | 3.2 | 14.5 | 0.00 | 0.00 | 0.00 | 39 | 1014.3 |
| 20260904212017 | 36 | 86 | 4.8 | 9.7 | 0.00 | 0.00 | 0.00 | 38 | 1014.3 |
| 20260904211516 | 37 | 27 | 4.8 | 12.9 | 0.00 | 0.00 | 0.00 | 38 | 1014.3 |
| 20260904211017 | 37 | 80 | 6.4 | 14.5 | 0.00 | 0.00 | 0.00 | 38 | 1014.3 |
| 20260904210517 | 37 | 76 | 3.2 | 11.3 | 0.00 | 0.00 | 0.00 | 39 | 1014.3 |
| 20260904210018 | 37 | 99 | 1.6 | 11.3 | 0.00 | 0.00 | 0.00 | 38 | 1014.4 |
| 20260904205517 | 37 | 80 | 6.4 | 12.9 | 0.00 | 0.00 | 0.00 | 38 | 1014.4 |
| 20260904205018 | 37 | 78 | 3.2 | 12.9 | 0.00 | 0.00 | 0.00 | 38 | 1014.4 |
| 20260904204517 | 37 | 42 | 0.0 | 6.4 | 0.00 | 0.00 | 0.00 | 38 | 1014.4 |
| 20260904204017 | 37 | 85 | 6.4 | 19.3 | 0.00 | 0.00 | 0.00 | 38 | 1014.4 |
| 20260904203517 | 37 | 85 | 1.6 | 11.3 | 0.00 | 0.00 | 0.00 | 38 | 1014.4 |
| 20260904203017 | 36 | 95 | 0.0 | 16.1 | 0.00 | 0.00 | 0.00 | 39 | 1014.6 |
| 20260904202517 | 36 | 41 | 9.7 | 17.7 | 0.00 | 0.00 | 0.00 | 39 | 1014.7 |
| 20260904202017 | 36 | 38 | 6.4 | 11.3 | 0.00 | 0.00 | 0.00 | 39 | 1014.7 |
| 20260904201517 | 37 | 82 | 0.0 | 16.1 | 0.00 | 0.00 | 0.00 | 39 | 1014.8 |
| 20260904201017 | 36 | 76 | 1.6 | 14.5 | 0.00 | 0.00 | 0.00 | 39 | 1014.9 |
| 20260904200517 | 36 | 96 | 6.4 | 12.9 | 0.00 | 0.00 | 0.00 | 40 | 1014.9 |
| 20260904200017 | 36 | 73 | 3.2 | 8.0 | 0.00 | 0.00 | 0.00 | 39 | 1015.1 |
| 20260904195517 | 36 | 169 | 3.2 | 9.7 | 0.00 | 0.00 | 0.00 | 41 | 1015.2 |
| 20260904195017 | 35 | 155 | 6.4 | 19.3 | 0.00 | 0.00 | 0.00 | 42 | 1015.2 |
| 20260904194517 | 35 | 82 | 4.8 | 12.9 | 0.00 | 0.00 | 0.00 | 43 | 1015.3 |
| 20260904194017 | 35 | 79 | 8.0 | 9.7 | 0.00 | 0.00 | 0.00 | 44 | 1015.3 |
| 20260904193517 | 35 | 54 | 1.6 | 11.3 | 0.00 | 0.00 | 0.00 | 45 | 1015.4 |
| 20260904193017 | 35 | 93 | 4.8 | 16.1 | 0.00 | 0.00 | 0.00 | 44 | 1015.6 |
| 20260904192518 | 35 | 47 | 6.4 | 11.3 | 0.00 | 0.00 | 0.00 | 42 | 1015.7 |
| 20260904192017 | 35 | 114 | 4.8 | 16.1 | 0.00 | 0.00 | 0.00 | 42 | 1015.8 |
| 20260904191518 | 35 | 90 | 9.7 | 17.7 | 0.00 | 0.00 | 0.00 | 43 | 1016.0 |
| 20260904191017 | 35 | 27 | 3.2 | 9.7 | 0.00 | 0.00 | 0.00 | 45 | 1016.0 |
| 20260904190518 | 35 | 68 | 0.0 | 14.5 | 0.00 | 0.00 | 0.00 | 45 | 1016.1 |
| 20260904190017 | 35 | 92 | 6.4 | 12.9 | 0.00 | 0.00 | 0.00 | 44 | 1016.2 |
| 20260904185517 | 35 | 73 | 3.2 | 14.5 | 0.00 | 0.00 | 0.00 | 45 | 1016.1 |
| 20260904185017 | 35 | 93 | 4.8 | 16.1 | 0.00 | 0.00 | 0.00 | 46 | 1016.3 |
| 20260904184517 | 35 | 92 | 4.8 | 12.9 | 0.00 | 0.00 | 0.00 | 45 | 1016.3 |
| 20260904184017 | 35 | 83 | 8.0 | 12.9 | 0.00 | 0.00 | 0.00 | 46 | 1016.5 |
| 20260904183517 | 35 | 73 | 4.8 | 17.7 | 0.00 | 0.00 | 0.00 | 46 | 1016.5 |
| 20260904183018 | 35 | 59 | 8.0 | 12.9 | 0.00 | 0.00 | 0.00 | 46 | 1016.5 |
| 20260904182517 | 35 | 78 | 1.6 | 17.7 | 0.00 | 0.00 | 0.00 | 46 | 1016.7 |
| 20260904182017 | 35 | 99 | 3.2 | 9.7 | 0.00 | 0.00 | 0.00 | 46 | 1016.7 |
| 20260904181517 | 35 | 102 | 0.0 | 16.1 | 0.00 | 0.00 | 0.00 | 45 | 1016.8 |
| 20260904181017 | 35 | 45 | 9.7 | 11.3 | 0.00 | 0.00 | 0.00 | 45 | 1016.9 |
| 20260904180517 | 35 | 10 | 6.4 | 11.3 | 0.00 | 0.00 | 0.00 | 46 | 1017.0 |
| 20260904180017 | 35 | 96 | 3.2 | 11.3 | 0.00 | 0.00 | 0.00 | 47 | 1017.0 |
| 20260904175518 | 35 | 40 | 4.8 | 16.1 | 0.00 | 0.00 | 0.00 | 46 | 1017.1 |
| 20260904175017 | 35 | 72 | 14.5 | 8.0 | 0.00 | 0.00 | 0.00 | 47 | 1017.1 |
| 20260904174518 | 35 | 65 | 3.2 | 11.3 | 0.00 | 0.00 | 0.00 | 47 | 1017.1 |
| 20260904174017 | 34 | 86 | 4.8 | 9.7 | 0.00 | 0.00 | 0.00 | 47 | 1017.2 |
| 20260904173517 | 35 | 71 | 3.2 | 11.3 | 0.00 | 0.00 | 0.00 | 48 | 1017.3 |
| 20260904173018 | 35 | 172 | 1.6 | 16.1 | 0.00 | 0.00 | 0.00 | 48 | 1017.4 |
| 20260904172517 | 34 | 78 | 9.7 | 11.3 | 0.00 | 0.00 | 0.00 | 48 | 1017.5 |
| 20260904172017 | 34 | 99 | 1.6 | 12.9 | 0.00 | 0.00 | 0.00 | 48 | 1017.5 |